Weather History for Reno, NV

Change the Weather History Date:

Thursday, January 17, 2013

  Actual Average Record
Temperature  
Mean Temperature 28 °F 36 °F  
Max Temperature 37 °F 46 °F 66 °F (2011)
Min Temperature 18 °F 25 °F -7 °F (1949)
Degree Days  
Heating Degree Days 37 29  
Month to date heating degree days 669 511  
Since 1 July heating degree days 2345 2535  
Cooling Degree Days 0 0  
Month to date cooling degree days 0 0  
Year to date cooling degree days 0 0  
Moisture  
Dew Point 18 °F    
Average Humidity 72    
Maximum Humidity 100    
Minimum Humidity 44    
Precipitation  
Precipitation 0.00 in 0.04 in 1.39 in (1916)
Month to date precipitation 0.05 0.63  
Year to date precipitation 0.05 0.63  
Snow  
Snow 0.00 in 0.20 in 22.50 in (1916)
Month to date snowfall 0.6 3.8  
Since 1 July snowfall 8.6 12.2  
Snow Depth 0.00 in    
Sea Level Pressure  
Sea Level Pressure 30.57 in    
Wind  
Wind Speed 1 mph (SE)    
Max Wind Speed 7 mph    
Max Gust Speed 10 mph    
Visibility 4 miles    
Events Fog    
T = Trace of Precipitation, MM = Missing Value Source: NWS Daily Summary

Daily Weather History Graph

Daily Weather History Graph

Search for Another Location

Airport:

Trip Planner

Search our weather history database for the weather conditions in past years. The results will help you decide how hot, cold, wet, or windy it might be!

Date:

Astronomy

Jan. 17, 2013 Rise Set
Actual Time 7:16 AM PST 5:02 PM PST
Civil Twilight 6:47 AM PST 5:31 PM PST
Nautical Twilight 6:14 AM PST 6:04 PM PST
Astronomical Twilight 5:42 AM PST 6:36 PM PST
Moon 10:28 AM PST (1/17) 11:56 PM PST (1/17)
Length of Visible Light 10h 44m
Length of Day
9h 45m
Waxing Crescent, 39% of the Moon is Illuminated
Jan 17
Waxing Crescent
Jan 18
First Quarter
Jan 26
Full
Feb 3
Last Quarter
Feb 9
New

Hourly Weather History & Observations

Time (PST) Temp. Windchill Dew Point Humidity Pressure Visibility Wind Dir Wind Speed Gust Speed Precip Events Conditions
12:00 AM 19.4 °F 12.8 °F 19.4 °F 100% 30.55 in 3.0 mi NE 4.6 mph - N/A   Partly Cloudy
12:18 AM 21.2 °F 16.4 °F 17.6 °F 86% 30.55 in 0.5 mi NNE 3.5 mph - N/A Fog Light Freezing Fog
12:55 AM 21.0 °F - 19.0 °F 92% 30.62 in 0.5 mi Calm Calm - N/A Fog Light Freezing Fog
1:03 AM 21.2 °F - 19.4 °F 93% 30.55 in 0.2 mi Calm Calm - N/A Fog Light Freezing Fog
1:55 AM 19.9 °F - 19.0 °F 96% 30.61 in 0.2 mi Calm Calm - N/A Fog Light Freezing Fog
2:25 AM 19.4 °F - 17.6 °F 93% 30.55 in 0.5 mi Calm Calm - N/A Fog Light Freezing Fog
2:45 AM 19.4 °F - 19.4 °F 100% 30.55 in 0.2 mi Calm Calm - N/A Fog Light Freezing Fog
2:55 AM 19.9 °F - 19.0 °F 96% 30.61 in 0.2 mi Calm Calm - N/A Fog Light Freezing Fog
3:55 AM 19.9 °F - 18.0 °F 92% 30.60 in 0.2 mi Calm Calm - N/A Fog Light Freezing Fog
4:55 AM 19.9 °F - 17.1 °F 89% 30.61 in 0.2 mi Calm Calm - N/A Fog Light Freezing Fog
5:55 AM 19.9 °F - 17.1 °F 89% 30.62 in 0.2 mi Calm Calm - N/A Fog Light Freezing Fog
6:48 AM 19.4 °F 14.3 °F 17.6 °F 93% 30.55 in 0.5 mi Variable 3.5 mph - N/A   Mist
6:55 AM 19.0 °F 12.3 °F 16.0 °F 88% 30.64 in 0.5 mi SW 4.6 mph - N/A Fog Light Freezing Fog
7:55 AM 18.0 °F 12.7 °F 15.1 °F 88% 30.66 in 0.5 mi South 3.5 mph - N/A   Overcast
8:16 AM 17.6 °F - 15.8 °F 93% 30.56 in 0.2 mi Calm Calm - N/A Fog Light Freezing Fog
8:55 AM 18.0 °F 12.7 °F 15.1 °F 88% 30.68 in 0.2 mi SW 3.5 mph - 0.00 in Fog Light Freezing Fog
9:38 AM 19.4 °F 14.3 °F 17.6 °F 93% 30.58 in 1.0 mi SW 3.5 mph - N/A   Mostly Cloudy
9:55 AM 19.9 °F - 18.0 °F 92% 30.68 in 1.2 mi Calm Calm - N/A   Mostly Cloudy
10:05 AM 19.4 °F - 17.6 °F 93% 30.57 in 1.5 mi Calm Calm - N/A   Mostly Cloudy
10:24 AM 19.4 °F - 17.6 °F 93% 30.57 in 2.0 mi Calm Calm - N/A   Overcast
10:55 AM 19.9 °F - 18.0 °F 92% 30.66 in 2.0 mi Calm Calm - N/A   Overcast
11:05 AM 21.2 °F - 19.4 °F 93% 30.55 in 3.0 mi Calm Calm - N/A   Overcast
11:30 AM 21.2 °F - 19.4 °F 93% 30.53 in 3.0 mi Calm Calm - N/A   Mostly Cloudy
11:46 AM 23.0 °F 17.0 °F 19.4 °F 86% 30.52 in 4.0 mi ESE 4.6 mph - N/A   Scattered Clouds
11:55 AM 23.0 °F 18.4 °F 19.0 °F 85% 30.62 in 5.0 mi Variable 3.5 mph - N/A   Scattered Clouds
12:55 PM 26.1 °F - 19.9 °F 78% 30.57 in 7.0 mi Calm Calm - N/A   Clear
1:55 PM 33.1 °F - 19.9 °F 59% 30.53 in 10.0 mi Calm Calm - N/A   Clear
2:55 PM 34.0 °F - 19.0 °F 54% 30.51 in 10.0 mi Calm Calm - N/A   Clear
3:55 PM 37.0 °F - 18.0 °F 46% 30.50 in 10.0 mi Calm Calm - N/A   Clear
4:55 PM 35.1 °F - 18.0 °F 50% 30.51 in 10.0 mi Calm Calm - N/A   Clear
5:55 PM 32.0 °F 27.5 °F 19.9 °F 61% 30.52 in 10.0 mi NE 4.6 mph - N/A   Clear
6:55 PM 30.0 °F - 19.0 °F 64% 30.53 in 10.0 mi Calm Calm - N/A   Clear
7:55 PM 28.9 °F - 19.0 °F 67% 30.54 in 10.0 mi Calm Calm - N/A   Clear
8:55 PM 26.1 °F - 18.0 °F 71% 30.55 in 10.0 mi Calm Calm - N/A   Clear
9:55 PM 24.1 °F - 18.0 °F 77% 30.56 in 10.0 mi Calm Calm - N/A   Clear
10:55 PM 23.0 °F - 16.0 °F 74% 30.55 in 10.0 mi Calm Calm - N/A   Clear
11:55 PM 21.9 °F - 17.1 °F 82% 30.55 in 10.0 mi Calm Calm - N/A   Clear